Tracking 22130 objects as of 21-Jan-2021
HD Live streaming from Space Station
objects crossing your sky now

STARLINK-1842

Track STARLINK-1842 now!
10-day predictions
STARLINK-1842 is classified as:


NORAD ID: 47132
Int'l Code: 2020-088L
Perigee: 385.6 km
Apogee: 387.9 km
Inclination: 53.1 °
Period: 92.1 minutes
Semi major axis: 6757 km
RCS: Unknown
Launch date: November 25, 2020
Source: United States (US)
Launch site: AIR FORCE EASTERN TEST RANGE (AFETR)
aabbcc
Your satellite tracking list
Your tracking list is empty




NASA's NSSDC Master Catalog

Two Line Element Set (TLE):
1 47132U 20088L   21021.83334491  .00009663  00000-0  11114-3 0  9991
2 47132  53.0552  69.6449 0001681   9.0572 203.4721 15.62777764  9859
Source of the keplerian elements: AFSPC